Regional Weather Roundup
Issued by NWS

Home | Current Version | Previous Version | Graphics & Text | Print | Product List | Glossary On
Versions: 1 2 3 4 5 6 7 8 9 10 11 12 13 14 15 16 17 18 19 20 21 22 23 24 25 26 27 28 29 30 31 32 33 34 35 36 37 38 39 40 41 42 43 44 45 46 47 48 49 50
000
ASUS43 KLOT 250202
RWRIL

ILLINOIS REGIONAL WEATHER ROUNDUP
NATIONAL WEATHER SERVICE CHICAGO/ROMEOVILLE IL
900 PM CDT FRI APR 24 2015

NOTE: "FAIR" INDICATES FEW OR NO CLOUDS BELOW 12,000 FEET WITH NO
SIGNIFICANT WEATHER AND/OR OBSTRUCTIONS TO VISIBILITY.

* THESE STATIONS ARE NOT UNDER NWS QUALITY CONTROL. THEY ALSO MAY NOT
  REPORT WEATHER SUCH AS PRECIPITATION OR FOG.

ILZ001-002-007-009-015-016-024-250300-
NORTHWEST ILLINOIS

CITY           SKY/WX    TMP DP  RH WIND       PRES   REMARKS
MOLINE         CLOUDY    50  41  71 E17       29.79F
STERLING*      CLOUDY    45  37  76 SE16G33   29.84R
$$

ILZ003-004-008-010-011-017-018-250300-
NORTH CENTRAL ILLINOIS

CITY           SKY/WX    TMP DP  RH WIND       PRES   REMARKS
ROCKFORD       CLOUDY    42  36  79 E12       29.91S
$$

ILZ005-006-012>014-019>023-250300-
NORTHEAST ILLINOIS

CITY           SKY/WX    TMP DP  RH WIND       PRES   REMARKS
CHICAGO-OHARE  LGT RAIN  42  35  76 E7        29.94R
CHICAGO-MIDWAY LGT RAIN  47  32  56 NE17      29.95R
AURORA         RAIN      44  35  70 E12       29.92R
WAUKEGAN       CLOUDY    39  36  89 NE12      29.93R WCI  32
DUPAGE AIRPORT RAIN      41  37  86 E6        29.92R FOG
WHEELING       LGT RAIN  41  34  76 VRB5      29.95R
NORTHERLY ISL    N/A     43  33  68 NE14        N/A
$$

LMZ740>746-250300-
SOUTHERN LAKE MICHIGAN

STATION/POSITION SKY/WX   TEMP    WIND        PRES    VSBY  WAVE
                          AIR SEA DIR/SP/G                  HT/PER
                          (F)     (DEG/KT/KT) (MB)    (MI)  (FT/S)
HARRISON CRIB              42      40/ 19/ 22   N/A
BURNHAM HARBOR             44      30/ 14/ 16   N/A
CALUMET HARBOR             44      50/ 10/ 12   N/A
BURNS HARBOR               47      60/ 18/ 22 1013.9S
MICHIGAN CITY              47      30/ 19/ 22   N/A
MICHIGAN CITY 6N           44 44   70/ 14/ 17   N/A           3/ 3
$$

ILZ025>027-034>036-040-047-049-050-058-095>099-250300-
WEST-CENTRAL ILLINOIS

CITY           SKY/WX    TMP DP  RH WIND       PRES   REMARKS
QUINCY         CLOUDY    60  41  49 S10       29.72F
$$

ILZ028>032-037-038-041>044-048-051>054-059>061-250300-
CENTRAL ILLINOIS

CITY           SKY/WX    TMP DP  RH WIND       PRES   REMARKS
DECATUR        CLOUDY    57  33  40 SE14      29.82S
PEORIA         CLOUDY    59  32  36 E10       29.81S
SPRINGFIELD    CLOUDY    59  37  44 S14       29.80R
TAYLORVILLE    NOT AVBL
$$

ILZ033-039-045-046-055>057-062-063-250300-
EAST-CENTRAL ILLINOIS

CITY           SKY/WX    TMP DP  RH WIND       PRES   REMARKS
CHAMPAIGN      CLOUDY    56  34  43 SE12      29.84S
MATTOON        CLOUDY    56  34  43 SE10      29.83F
$$

ILZ079-100>102-250300-
SOUTHWEST ILLINOIS

CITY           SKY/WX    TMP DP  RH WIND       PRES   REMARKS
ALTON          CLOUDY    55  41  58 MISG      29.80
BELLEVILLE     CLOUDY    55  47  73 VRB6      29.79S
CAHOKIA*       CLOUDY    56  45  66 S8        29.80R
$$

ILZ064>066-069>071-074>076-080>082-084>086-088>090-092>094-250300-
SOUTH-CENTRAL ILLINOIS

CITY           SKY/WX    TMP DP  RH WIND       PRES   REMARKS
CARBONDALE     CLOUDY    55  43  63 SE8       29.81F
MT. VERNON     CLOUDY    57  39  51 SE6       29.85R
$$

ILZ067-068-072-073-078-083-087-091-250300-
SOUTHEAST ILLINOIS

CITY           SKY/WX    TMP DP  RH WIND       PRES   REMARKS
LAWRENCEVILLE  CLOUDY    59  37  44 SE7       29.86F
$$

ABBREVIATIONS USED IN REMARKS
   TC - TEMPERATURE IN CELSIUS
  WCI - WIND CHILL INDEX
   HX - HEAT INDEX
  VSB - VISIBILITY
$$



USA.gov is the U.S. government's official web portal to all federal, state and local government web resources and services.